Wainwright, AK

4:03 AM AKDT on May 28, 2017 (GMT -0800)
Wainwright

Weather History for PAWI - October, 2012

Change the Weather History Date:

Saturday, October 27, 2012

  Actual Average (PABR) Record (PABR)
Temperature  
Mean Temperature 32 °F -  
Max Temperature 35 °F 12 °F 36 °F (1946)
Min Temperature 30 °F 0 °F -32 °F (1970)
Degree Days  
Heating Degree Days 32    
Moisture  
Dew Point 30 °F    
Average Humidity 89    
Maximum Humidity 100    
Minimum Humidity 70    
Precipitation  
Precipitation 0.00 in - - ()
Sea Level Pressure  
Sea Level Pressure 30.21 in    
Wind  
Wind Speed 14 mph (West)    
Max Wind Speed 20 mph    
Max Gust Speed 28 mph    
Visibility 7 miles    
Events      
Averages and records for this station are not official NWS values.
T = Trace of Precipitation, MM = Missing Value Source: NWS Daily Summary

Daily Weather History Graph

Daily Weather History Graph

Search for Another Location

Airport or City:

Trip Planner

Search our weather history database for the weather conditions in past years. The results will help you decide how hot, cold, wet, or windy it might be!

Date:

Astronomy

Oct. 27, 2012 Rise Set
Actual Time 10:56 AM AKDT 5:49 PM AKDT
Civil Twilight 9:42 AM AKDT 7:03 PM AKDT
Nautical Twilight 8:27 AM AKDT 8:17 PM AKDT
Astronomical Twilight 7:14 AM AKDT 9:30 PM AKDT
Moon 5:15 PM AKDT (10/27) 8:16 AM AKDT (10/27)
Length of Visible Light 9h 20m
Length of Day
6h 53m
Waxing Gibbous, 96% of the Moon is Illuminated
Oct 27
Waxing Gibbous
Oct 29
Full
Nov 6
Last Quarter
Nov 13
New
Nov 20
First Quarter

Hourly Weather History & Observations

Time (AKDT) Temp. Windchill Dew Point Humidity Pressure Visibility Wind Dir Wind Speed Gust Speed Precip Events Conditions
12:53 AM 30.0 °F 19.1 °F 27.0 °F 88% 30.25 in 10.0 mi SSW 15.0 mph - N/A   Overcast
1:01 AM 30.2 °F 19.3 °F 26.6 °F 86% 30.25 in 10.0 mi SSW 15.0 mph - N/A   Overcast
1:53 AM 32.0 °F 21.6 °F 28.9 °F 88% 30.25 in 5.0 mi SSW 15.0 mph - N/A   Overcast
2:06 AM 32.0 °F 21.6 °F 30.2 °F 93% 30.24 in 4.0 mi SSW 15.0 mph - N/A   Overcast
2:11 AM 32.0 °F 21.6 °F 30.2 °F 93% 30.23 in 4.0 mi SSW 15.0 mph - N/A   Overcast
2:22 AM 32.0 °F 22.1 °F 30.2 °F 93% 30.23 in 3.0 mi SSW 13.8 mph - N/A   Overcast
2:53 AM 33.1 °F 22.2 °F 30.9 °F 92% 30.23 in 8.0 mi WSW 17.3 mph - N/A   Overcast
3:53 AM 33.1 °F 23.0 °F 30.9 °F 92% 30.22 in 3.0 mi WSW 15.0 mph - N/A   Overcast
4:53 AM 34.0 °F 23.4 °F 32.0 °F 92% 30.22 in 5.0 mi WSW 17.3 mph - N/A   Overcast
5:53 AM 35.1 °F 25.9 °F 33.1 °F 92% 30.21 in 6.0 mi West 13.8 mph - N/A   Overcast
7:53 AM 35.1 °F 25.9 °F 33.1 °F 92% 30.21 in 10.0 mi WSW 13.8 mph - N/A   Overcast
8:53 AM 34.0 °F 24.2 °F 32.0 °F 92% 30.21 in 9.0 mi WSW 15.0 mph - N/A   Overcast
9:06 AM 33.8 °F 23.9 °F 32.0 °F 93% 30.20 in 4.0 mi West 15.0 mph - N/A   Overcast
9:18 AM 33.8 °F 24.3 °F 32.0 °F 93% 30.21 in 1.8 mi WSW 13.8 mph - N/A   Overcast
9:31 AM 33.8 °F 23.9 °F 32.0 °F 93% 30.21 in 0.8 mi WSW 15.0 mph - N/A   Mist
9:44 AM 33.8 °F 24.3 °F 33.8 °F 100% 30.20 in 2.0 mi WSW 13.8 mph - N/A   Overcast
9:51 AM 33.8 °F 25.3 °F 33.8 °F 100% 30.20 in 4.0 mi WSW 11.5 mph - N/A   Overcast
9:53 AM 34.0 °F 24.2 °F 33.1 °F 96% 30.20 in 3.0 mi WSW 15.0 mph - N/A   Overcast
10:31 AM 33.8 °F 24.3 °F 33.8 °F 100% 30.20 in 10.0 mi WSW 13.8 mph - N/A   Overcast
10:53 AM 35.1 °F 26.9 °F 33.1 °F 92% 30.20 in 10.0 mi WSW 11.5 mph - N/A   Overcast
11:08 AM 35.6 °F 27.5 °F 32.0 °F 87% 30.19 in 10.0 mi WSW 11.5 mph - N/A   Overcast
11:53 AM 35.1 °F 26.9 °F 33.1 °F 92% 30.20 in 10.0 mi West 11.5 mph - N/A   Overcast
12:53 PM 35.1 °F 27.9 °F 32.0 °F 89% 30.21 in 10.0 mi West 9.2 mph - N/A   Overcast
1:23 PM 35.6 °F 29.2 °F 32.0 °F 87% 30.20 in 10.0 mi West 8.1 mph - N/A   Scattered Clouds
1:53 PM 35.1 °F 27.4 °F 32.0 °F 89% 30.21 in 10.0 mi West 10.4 mph - N/A   Scattered Clouds
2:05 PM 35.6 °F 28.6 °F 30.2 °F 81% 30.20 in 10.0 mi West 9.2 mph - N/A   Mostly Cloudy
2:53 PM 34.0 °F 26.0 °F 30.9 °F 89% 30.21 in 10.0 mi WNW 10.4 mph - N/A   Mostly Cloudy
3:53 PM 34.0 °F 26.0 °F 30.9 °F 89% 30.21 in 10.0 mi WNW 10.4 mph - N/A   Overcast
4:11 PM 33.8 °F 25.3 °F 30.2 °F 87% 30.21 in 4.0 mi WNW 11.5 mph - N/A   Overcast
4:14 PM 32.0 °F 22.5 °F 30.2 °F 93% 30.21 in 1.8 mi WNW 12.7 mph - N/A   Overcast
4:51 PM 32.0 °F 24.2 °F 30.2 °F 93% 30.21 in 3.0 mi WNW 9.2 mph - N/A   Overcast
4:53 PM 32.0 °F 23.6 °F 30.0 °F 92% 30.22 in 4.0 mi WNW 10.4 mph - N/A   Overcast
5:21 PM 32.0 °F 24.2 °F 28.4 °F 87% 30.22 in 10.0 mi West 9.2 mph - N/A   Overcast
5:42 PM 32.0 °F 23.0 °F 28.4 °F 87% 30.22 in 10.0 mi WNW 11.5 mph - N/A   Overcast
5:53 PM 33.1 °F 24.4 °F 28.9 °F 85% 30.22 in 10.0 mi WNW 11.5 mph - N/A   Overcast
6:53 PM 33.1 °F 23.9 °F 28.0 °F 82% 30.22 in 10.0 mi WNW 12.7 mph - N/A   Overcast
7:53 PM 33.1 °F 23.4 °F 24.1 °F 70% 30.22 in 10.0 mi WNW 13.8 mph 23.0 mph N/A   Overcast
8:53 PM 32.0 °F 20.1 °F 24.1 °F 73% 30.21 in 10.0 mi WNW 19.6 mph 27.6 mph N/A   Scattered Clouds
9:53 PM 30.9 °F 18.7 °F 24.1 °F 76% 30.22 in 10.0 mi WNW 19.6 mph - N/A   Mostly Cloudy
10:53 PM 30.9 °F 19.8 °F 24.1 °F 76% 30.22 in 10.0 mi WNW 16.1 mph 26.5 mph N/A   Mostly Cloudy
11:53 PM 30.9 °F 18.7 °F 24.1 °F 76% 30.21 in 10.0 mi West 19.6 mph 26.5 mph N/A   Overcast